GEOEYE 1

Last updated on Thu Oct 30 2025 00:02:31 GMT+0000 (Coordinated Universal Time)

1 33331U 08042A 25302.45898019 .00000808 00000+0 16065-3 0 9999 2 33331 98.1297 14.2846 0005060 63.7889 296.3834 14.64719531916370
UTC large
Height (km)
Speed (km/s)
/
Latitude / Longitude
Inclination (degrees)
Orbital Period (minutes)
Azimuth
Elevation
Range (km)
Doppler Factor

Next 0 passes for location: London (51.5072 / 0.1276)

Sorry there are no passes over London.